Location: Jackson Park
(37.2862°N, 79.9123°W)
Time: 20:46:29
(UTC+00:00)

Vanguard 3 - Pass Details

Date: 19 May 2026
Orbit: 507 x 3205 km, 33.4° (Epoch: 31 May)

Event Time Altitude Azimuth Distance (km) Brightness Sun altitude
Rises 15:16:44 0° 206° (SSW) 5,241 11.3 58.7°
Reaches altitude 10° 15:20:14 10° 196° (SSW) 4,600 11.2 59.4°
Maximum altitude 15:32:08 34° 138° (SE) 3,904 11.9 61.4°
Drops below altitude 10° 15:47:53 10° 83° (E) 6,116 12.0 64.1°
Sets 15:53:24 0° 76° (ENE) 7,143 12.2 64.9°
